�N����,����,�~����,�C��,���x,�C��,����,���ϕ���,�ő�u�ԕ���,�ő厞����,���˗�,�I�_���x,�n�����x,�ő啗���N��,DTYPE
"22/04/09","00:10",0.0,8.5,71.5,1015.4,327.9,1.6,2.2,335.0,0.00,3.7,13.5,"00:01:12",1
"22/04/09","00:20",0.0,8.6,71.9,1015.4,294.0,2.0,2.5,301.5,0.00,3.9,13.8,"00:14:48",1
"22/04/09","00:30",0.0,8.5,71.9,1015.2,318.2,1.8,2.4,335.6,0.00,3.8,13.6,"00:26:40",1
"22/04/09","00:40",0.0,7.7,72.8,1014.9,322.7,1.8,3.1,315.8,0.00,3.2,13.6,"00:39:52",1
"22/04/09","00:50",0.0,8.2,73.1,1014.7,289.8,2.1,2.9,332.7,0.00,3.7,13.4,"00:40:16",1
"22/04/09","01:00",0.0,8.4,72.9,1015.2,307.5,2.0,3.1,295.3,0.00,3.9,13.5,"00:50:32",1
"22/04/09","01:10",0.0,7.8,73.0,1015.2,323.3,1.6,2.2,322.0,0.00,3.3,13.3,"01:04:00",1
"22/04/09","01:20",0.0,7.4,73.9,1014.7,322.4,1.6,2.4,335.6,0.00,3.1,13.3,"01:15:36",1
"22/04/09","01:30",0.0,6.9,74.5,1014.9,312.8,1.7,2.1,313.3,0.00,2.7,12.9,"01:23:04",1
"22/04/09","01:40",0.0,6.6,75.4,1014.5,303.2,1.1,2.1,326.2,0.00,2.6,13.3,"01:39:52",1
"22/04/09","01:50",0.0,6.7,76.2,1014.5,335.1,1.8,2.5,332.7,0.00,2.9,13.1,"01:44:56",1
"22/04/09","02:00",0.0,6.7,76.7,1014.7,299.9,1.1,1.6,326.9,0.00,2.9,13.2,"01:51:20",1
"22/04/09","02:10",0.0,6.6,77.3,1014.7,301.6,1.0,2.2,317.8,0.00,3.0,13.0,"02:09:22",1
"22/04/09","02:20",0.0,6.4,77.6,1014.7,284.7,0.7,1.9,322.6,0.00,2.8,12.8,"02:10:08",1
"22/04/09","02:30",0.0,6.4,78.2,1014.2,323.0,1.1,1.7,341.8,0.00,2.9,13.0,"02:28:56",1
"22/04/09","02:40",0.0,6.4,78.4,1014.7,318.7,1.6,2.5,323.4,0.00,3.0,12.8,"02:33:28",1
"22/04/09","02:50",0.0,6.4,78.9,1014.2,268.0,0.5,1.2,315.0,0.00,3.1,12.9,"02:40:08",1
"22/04/09","03:00",0.0,6.2,79.6,1014.5,321.2,1.7,2.0,331.4,0.00,3.0,12.8,"02:55:18",1
"22/04/09","03:10",0.0,6.0,80.3,1014.2,314.3,1.3,1.7,322.9,0.00,2.9,12.7,"03:02:34",1
"22/04/09","03:20",0.0,6.1,80.9,1014.0,319.3,1.6,1.9,325.0,0.00,3.1,12.6,"03:10:58",1
"22/04/09","03:30",0.0,6.0,81.1,1014.5,304.8,1.3,1.6,311.0,0.00,3.0,12.6,"03:23:04",1
"22/04/09","03:40",0.0,6.2,81.5,1014.2,297.8,1.6,2.4,304.6,0.00,3.3,12.6,"03:35:22",1
"22/04/09","03:50",0.0,6.2,81.5,1014.7,311.7,1.5,2.0,314.1,0.00,3.3,12.4,"03:45:12",1
"22/04/09","04:00",0.0,6.4,81.4,1014.5,306.9,1.6,2.5,328.5,0.00,3.5,12.4,"03:52:40",1
"22/04/09","04:10",0.0,6.4,81.1,1014.2,288.4,1.7,2.0,299.1,0.00,3.4,12.4,"04:03:12",1
"22/04/09","04:20",0.0,6.5,80.7,1014.2,318.3,1.7,2.5,311.2,0.00,3.5,12.4,"04:10:40",1
"22/04/09","04:30",0.0,6.1,80.4,1014.2,310.7,1.3,1.7,311.5,0.00,3.0,12.3,"04:20:50",1
"22/04/09","04:40",0.0,5.9,80.5,1014.2,322.7,1.3,1.8,324.2,0.00,2.8,12.1,"04:37:04",1
"22/04/09","04:50",0.0,6.0,80.8,1014.2,331.4,1.1,2.4,326.4,0.00,3.0,12.3,"04:49:12",1
"22/04/09","05:00",0.0,5.5,81.1,1014.7,300.8,1.5,2.1,318.8,0.00,2.6,12.2,"04:50:24",1
"22/04/09","05:10",0.0,5.5,81.7,1014.5,307.2,1.2,1.8,321.3,0.00,2.7,12.1,"05:07:54",1
"22/04/09","05:20",0.0,5.5,82.2,1014.5,332.1,1.6,2.2,333.1,0.00,2.8,12.2,"05:13:48",1
"22/04/09","05:30",0.0,5.4,82.6,1014.5,316.0,1.7,2.2,323.0,0.00,2.7,12.0,"05:20:36",1
"22/04/09","05:40",0.0,5.3,82.8,1014.9,293.9,1.1,1.3,297.6,0.00,2.7,12.0,"05:30:38",1
"22/04/09","05:50",0.0,5.1,83.1,1014.7,287.0,0.7,1.2,298.2,0.00,2.5,11.9,"05:41:12",1
"22/04/09","06:00",0.0,5.2,83.5,1014.7,323.0,1.2,1.7,328.3,0.00,2.7,11.7,"05:54:54",1
"22/04/09","06:10",0.0,5.1,83.7,1015.2,307.1,1.3,1.9,318.4,0.00,2.6,11.9,"06:08:54",1
"22/04/09","06:20",0.0,5.2,84.2,1015.2,323.9,2.0,2.6,327.8,0.00,2.8,12.0,"06:14:24",1
"22/04/09","06:30",0.0,5.3,84.7,1015.2,302.8,1.1,2.0,310.3,0.00,3.0,11.9,"06:20:44",1
"22/04/09","06:40",0.0,5.8,85.1,1015.4,242.9,0.2,0.5,173.4,0.00,3.5,11.8,"06:30:32",1
"22/04/09","06:50",0.0,6.4,85.1,1015.2,297.4,1.1,2.5,313.7,0.01,4.1,11.8,"06:49:20",1
"22/04/09","07:00",0.0,6.6,85.2,1015.6,326.7,2.3,2.7,323.7,0.02,4.3,11.8,"06:54:24",1
"22/04/09","07:10",0.0,7.7,85.3,1015.9,316.7,1.6,2.1,331.0,0.04,5.4,11.7,"07:01:12",1
"22/04/09","07:20",0.0,8.8,84.5,1015.9,276.2,0.2,0.6,290.1,0.06,6.4,11.6,"07:10:08",1
"22/04/09","07:30",0.0,9.5,83.1,1016.1,206.1,0.3,0.5,282.4,0.08,6.8,11.5,"07:20:16",1
"22/04/09","07:40",0.0,10.3,80.9,1016.8,280.0,0.2,0.6,296.8,0.10,7.2,11.8,"07:33:04",1
"22/04/09","07:50",0.0,11.1,77.6,1016.8,315.4,1.1,1.8,328.1,0.12,7.4,11.7,"07:48:08",1
"22/04/09","08:00",0.0,12.0,73.1,1017.1,295.3,1.0,1.8,321.4,0.15,7.4,11.7,"07:50:08",1
"22/04/09","08:10",0.0,13.3,68.2,1016.8,306.2,0.3,0.8,298.5,0.18,7.6,11.6,"08:00:48",1
"22/04/09","08:20",0.0,14.0,64.4,1017.3,296.7,0.5,1.1,323.0,0.21,7.4,11.5,"08:19:04",1
"22/04/09","08:30",0.0,14.3,60.1,1017.1,313.0,0.5,1.0,273.4,0.23,6.7,11.7,"08:22:16",1
"22/04/09","08:40",0.0,14.9,56.5,1016.8,322.6,0.3,0.9,329.1,0.26,6.4,11.8,"08:30:24",1
"22/04/09","08:50",0.0,15.6,49.7,1016.8,235.5,0.5,0.9,140.3,0.29,5.2,11.7,"08:42:16",1
"22/04/09","09:00",0.0,16.4,48.4,1016.8,9.5,0.5,1.1,278.0,0.32,5.5,11.6,"08:50:08",1
"22/04/09","09:10",0.0,16.8,46.5,1016.1,247.5,0.5,1.2,206.4,0.34,5.3,11.8,"09:07:04",1
"22/04/09","09:20",0.0,17.6,46.2,1015.9,265.4,0.6,1.2,152.4,0.37,6.0,11.9,"09:12:08",1
"22/04/09","09:30",0.0,17.6,45.7,1016.1,134.7,1.0,2.1,119.3,0.40,5.8,12.0,"09:22:32",1
"22/04/09","09:40",0.0,17.6,45.8,1015.6,131.3,1.2,2.6,121.3,0.42,5.8,11.9,"09:37:36",1
"22/04/09","09:50",0.0,18.2,45.7,1015.9,172.0,1.0,2.0,120.5,0.44,6.3,12.0,"09:42:32",1
"22/04/09","10:00",0.0,18.6,46.7,1015.6,172.1,1.5,4.2,182.5,0.46,7.0,12.3,"09:56:16",1
"22/04/09","10:10",0.0,18.6,47.2,1015.2,176.1,1.8,3.3,180.3,0.48,7.2,12.2,"10:04:32",1
"22/04/09","10:20",0.0,18.9,45.5,1015.4,148.1,1.5,4.0,122.9,0.50,6.9,12.4,"10:16:00",1
"22/04/09","10:30",0.0,19.2,45.1,1015.9,127.1,1.5,3.3,143.9,0.51,7.1,12.5,"10:22:00",1
"22/04/09","10:40",0.0,19.8,43.7,1015.2,137.6,1.2,2.9,125.8,0.53,7.1,12.4,"10:32:32",1
"22/04/09","10:50",0.0,20.0,42.3,1014.7,147.6,1.5,3.2,130.5,0.54,6.9,12.5,"10:46:56",1
"22/04/09","11:00",0.0,20.8,42.0,1014.9,125.5,1.1,2.8,118.8,0.56,7.5,12.6,"10:56:32",1
"22/04/09","11:10",0.0,21.1,41.0,1014.5,158.3,1.8,3.9,133.6,0.57,7.4,12.8,"11:09:04",1
"22/04/09","11:20",0.0,21.4,41.2,1014.7,190.0,1.8,3.4,149.5,0.58,7.7,13.0,"11:10:32",1
"22/04/09","11:30",0.0,21.8,38.8,1014.2,150.9,1.7,3.2,146.3,0.58,7.2,13.3,"11:24:56",1
"22/04/09","11:40",0.0,22.5,38.7,1013.8,241.1,1.2,2.7,346.7,0.59,7.8,13.2,"11:31:36",1
"22/04/09","11:50",0.0,22.7,37.6,1013.8,38.6,1.3,3.3,353.6,0.60,7.6,13.2,"11:40:56",1
"22/04/09","12:00",0.0,22.7,38.3,1013.3,282.3,2.0,4.4,348.4,0.61,7.8,13.5,"11:56:16",1
"22/04/09","12:10",0.0,23.5,36.3,1013.3,318.0,1.0,2.5,344.8,0.61,7.7,13.6,"12:00:32",1
"22/04/09","12:20",0.0,23.0,35.5,1013.0,319.3,2.5,8.2,350.9,0.61,7.0,13.7,"12:19:44",1
"22/04/09","12:30",0.0,23.6,38.8,1012.8,257.7,2.2,5.0,237.0,0.61,8.8,13.8,"12:23:20",1
"22/04/09","12:40",0.0,23.6,36.8,1012.8,228.4,2.2,5.7,222.6,0.61,8.0,14.0,"12:33:44",1
"22/04/09","12:50",0.0,24.1,36.2,1012.3,303.0,1.3,2.9,115.9,0.61,8.2,14.0,"12:43:52",1
"22/04/09","13:00",0.0,24.0,34.4,1012.6,319.1,1.8,5.9,235.2,0.60,7.4,14.2,"12:51:44",1
"22/04/09","13:10",0.0,24.0,35.9,1012.3,324.5,2.0,4.5,318.5,0.59,8.0,14.4,"13:00:48",1
"22/04/09","13:20",0.0,23.9,35.3,1012.3,277.6,2.1,5.4,237.0,0.60,7.7,14.5,"13:17:20",1
"22/04/09","13:30",0.0,23.9,35.9,1011.9,230.4,1.8,4.8,198.8,0.59,7.9,14.6,"13:25:04",1
"22/04/09","13:40",0.0,24.5,35.7,1011.9,184.7,2.6,6.4,193.7,0.58,8.4,14.7,"13:31:04",1
"22/04/09","13:50",0.0,24.2,36.9,1012.1,199.2,3.4,6.8,224.9,0.56,8.6,14.9,"13:44:08",1
"22/04/09","14:00",0.0,23.9,36.4,1012.1,176.9,3.6,7.3,187.0,0.55,8.1,14.8,"13:59:04",1
"22/04/09","14:10",0.0,24.3,36.2,1011.9,180.5,3.2,5.8,197.1,0.54,8.4,15.1,"14:07:36",1
"22/04/09","14:20",0.0,24.3,36.5,1011.6,194.5,3.4,7.1,206.3,0.53,8.5,15.1,"14:10:32",1
"22/04/09","14:30",0.0,24.1,35.1,1011.4,181.7,3.7,7.2,125.9,0.52,7.8,15.2,"14:28:24",1
"22/04/09","14:40",0.0,24.3,35.0,1011.6,171.1,3.5,6.7,192.6,0.50,7.9,15.4,"14:34:00",1
"22/04/09","14:50",0.0,24.4,35.4,1011.2,202.9,3.4,8.6,208.1,0.48,8.2,15.4,"14:41:20",1
"22/04/09","15:00",0.0,24.9,36.1,1011.2,243.0,2.6,5.5,207.3,0.46,8.9,15.5,"14:51:36",1
"22/04/09","15:10",0.0,24.4,34.5,1010.9,185.0,3.4,5.9,145.9,0.45,7.8,15.7,"15:05:12",1
"22/04/09","15:20",0.0,24.6,34.9,1010.9,181.0,3.4,6.6,190.5,0.42,8.1,15.7,"15:12:24",1
"22/04/09","15:30",0.0,24.2,33.6,1010.7,186.1,3.9,6.5,219.6,0.39,7.2,15.8,"15:28:48",1
"22/04/09","15:40",0.0,24.6,34.6,1010.7,175.1,3.6,6.4,197.0,0.37,8.0,15.7,"15:32:32",1
"22/04/09","15:50",0.0,24.8,33.6,1010.9,219.5,3.4,6.0,221.9,0.35,7.8,15.8,"15:40:40",1
"22/04/09","16:00",0.0,24.5,33.4,1010.9,199.8,2.6,6.6,223.4,0.33,7.4,15.7,"15:55:04",1
"22/04/09","16:10",0.0,24.9,33.3,1011.2,246.1,1.8,5.1,235.5,0.30,7.7,15.7,"16:04:48",1
"22/04/09","16:20",0.0,24.6,32.0,1010.7,232.5,2.3,6.3,251.5,0.28,6.9,16.0,"16:17:36",1
"22/04/09","16:30",0.0,24.8,32.2,1010.7,258.7,2.0,3.7,228.4,0.25,7.1,15.9,"16:26:00",1
"22/04/09","16:40",0.0,24.8,30.9,1010.7,285.8,1.7,4.0,222.0,0.22,6.5,16.1,"16:39:52",1
"22/04/09","16:50",0.0,24.5,31.8,1010.7,204.9,1.6,4.9,240.6,0.19,6.7,16.1,"16:42:56",1
"22/04/09","17:00",0.0,24.2,32.5,1010.7,220.2,2.6,4.8,230.4,0.17,6.7,16.1,"16:56:00",1
"22/04/09","17:10",0.0,24.6,31.8,1010.4,253.1,1.2,3.3,223.3,0.14,6.8,16.1,"17:00:40",1
"22/04/09","17:20",0.0,24.1,33.9,1010.7,219.2,1.8,4.4,168.5,0.11,7.3,16.2,"17:14:00",1
"22/04/09","17:30",0.0,23.4,33.1,1010.4,194.4,2.6,4.3,199.2,0.09,6.3,16.1,"17:24:56",1
"22/04/09","17:40",0.0,23.2,34.0,1010.7,194.5,2.8,5.8,167.1,0.07,6.5,16.2,"17:32:48",1
"22/04/09","17:50",0.0,23.1,34.5,1010.7,221.9,2.2,4.7,221.8,0.05,6.6,16.2,"17:44:16",1
"22/04/09","18:00",0.0,22.8,35.6,1011.2,208.6,1.8,3.4,183.3,0.03,6.8,16.4,"17:57:36",1
"22/04/09","18:10",0.0,22.4,35.5,1011.4,184.1,2.3,4.2,209.0,0.02,6.4,16.2,"18:09:28",1
"22/04/09","18:20",0.0,21.9,37.2,1011.4,206.1,2.0,3.7,195.3,0.01,6.7,16.3,"18:11:52",1
"22/04/09","18:30",0.0,21.5,37.7,1011.6,219.2,1.6,3.4,242.1,0.00,6.5,16.2,"18:25:28",1
"22/04/09","18:40",0.0,21.2,38.5,1011.9,228.6,1.3,3.4,233.1,0.00,6.6,16.1,"18:36:56",1
"22/04/09","18:50",0.0,20.6,40.6,1011.6,226.1,1.0,2.5,239.0,0.00,6.8,16.2,"18:46:24",1
"22/04/09","19:00",0.0,20.0,42.6,1011.9,212.5,1.0,2.2,218.5,0.00,7.0,15.7,"18:54:48",1
"22/04/09","19:10",0.0,19.4,45.1,1012.1,298.6,1.5,2.4,342.0,0.00,7.2,15.9,"19:08:48",1
"22/04/09","19:20",0.0,18.2,48.4,1012.3,303.1,2.0,3.2,306.5,0.00,7.2,16.2,"19:14:24",1
"22/04/09","19:30",0.0,17.7,50.3,1012.3,316.1,2.0,3.5,326.9,0.00,7.3,16.0,"19:20:08",1
"22/04/09","19:40",0.0,17.1,53.0,1012.3,336.2,1.5,2.2,339.3,0.00,7.5,15.8,"19:35:44",1
"22/04/09","19:50",0.0,16.8,53.6,1012.3,295.4,1.7,2.2,295.3,0.00,7.4,15.7,"19:44:40",1
"22/04/09","20:00",0.0,16.4,56.0,1013.0,326.6,2.1,3.2,331.4,0.00,7.6,15.8,"19:54:08",1
"22/04/09","20:10",0.0,16.0,56.8,1013.3,288.9,1.5,2.2,318.5,0.00,7.5,15.8,"20:00:24",1
"22/04/09","20:20",0.0,15.8,57.3,1013.3,306.1,1.5,2.0,317.1,0.00,7.4,15.7,"20:13:28",1
"22/04/09","20:30",0.0,15.3,58.5,1013.5,318.3,1.0,1.6,336.0,0.00,7.3,15.5,"20:21:36",1
"22/04/09","20:40",0.0,15.0,61.0,1013.5,329.2,1.3,1.8,320.2,0.00,7.6,15.6,"20:34:40",1
"22/04/09","20:50",0.0,14.5,63.0,1013.8,327.3,1.3,2.1,325.2,0.00,7.6,15.4,"20:49:36",1
"22/04/09","21:00",0.0,14.6,63.1,1013.5,314.1,1.7,2.6,315.6,0.00,7.7,15.5,"20:50:48",1
"22/04/09","21:10",0.0,14.2,63.6,1013.8,305.1,1.0,1.7,327.1,0.00,7.4,15.5,"21:00:40",1
"22/04/09","21:20",0.0,14.0,64.1,1014.0,304.8,1.3,2.5,308.4,0.00,7.4,15.4,"21:19:28",1
"22/04/09","21:30",0.0,14.0,64.2,1014.2,271.2,1.2,1.7,301.7,0.00,7.4,15.4,"21:20:08",1
"22/04/09","21:40",0.0,14.1,64.0,1014.2,308.0,1.7,3.2,322.7,0.00,7.4,15.2,"21:36:02",1
"22/04/09","21:50",0.0,13.5,65.9,1014.5,320.9,1.7,2.5,336.4,0.00,7.3,15.2,"21:42:34",1
"22/04/09","22:00",0.0,13.5,66.5,1014.5,306.5,2.2,3.2,314.6,0.00,7.4,15.2,"21:57:42",1
"22/04/09","22:10",0.0,13.5,66.1,1014.7,297.9,1.7,2.2,308.2,0.00,7.3,15.0,"22:02:28",1
"22/04/09","22:20",0.0,13.4,66.1,1014.2,308.6,1.7,2.4,307.0,0.00,7.2,15.1,"22:14:04",1
"22/04/09","22:30",0.0,13.2,66.3,1014.7,324.3,1.7,2.5,329.5,0.00,7.1,14.8,"22:21:04",1
"22/04/09","22:40",0.0,12.8,66.9,1014.9,311.7,1.1,2.1,314.1,0.00,6.8,14.9,"22:34:26",1
"22/04/09","22:50",0.0,12.6,67.8,1014.7,291.5,1.3,1.9,304.0,0.00,6.9,14.8,"22:47:40",1
"22/04/09","23:00",0.0,12.5,69.0,1014.5,326.8,1.7,2.2,327.6,0.00,7.0,14.7,"22:50:44",1
"22/04/09","23:10",0.0,12.1,69.8,1014.5,287.4,1.1,1.6,301.7,0.00,6.8,14.7,"23:01:38",1
"22/04/09","23:20",0.0,12.2,70.5,1014.9,279.9,1.7,2.0,269.2,0.00,7.0,14.6,"23:17:38",1
"22/04/09","23:30",0.0,12.3,70.8,1014.9,316.9,2.1,3.2,317.0,0.00,7.2,14.7,"23:24:02",1
"22/04/09","23:40",0.0,11.6,71.4,1015.2,278.5,1.0,1.4,316.4,0.00,6.6,14.7,"23:30:24",1
"22/04/09","23:50",0.0,11.6,72.0,1014.9,287.5,1.5,1.9,263.7,0.00,6.8,14.3,"23:41:52",1
"22/04/09","24:00",0.0,11.6,73.1,1014.9,312.2,1.5,2.4,304.1,0.00,7.0,14.5,"23:59:38",1
